Flag for Germany Weather past 2 weeks in Nienburg (Weser), Lower Saxony, Germany

Now
61 °F

Partly sunny.


Feels Like: 61 °F
Forecast: 53 / 62 °F
Wind: 15 mph from Southwest

Location: Wunstorf Airport

Current Time: Jul 8, 2015 at 8:45:27 AM

Latest Report: Jul 8, 2015 at 7:20 AM


Visibility: N/A

Pressure: 29.71 "Hg

Humidity: 77%

Dew point: 54 °F

Location of Nienburg (Weser)Location

Historic Weather in Nienburg (Weser) — Graph

°F

Nienburg (Weser) temperature yesterday

Maximum temperature yesterday: 84 °F (at 2:20 PM)
Minimum temperature yesterday: 55 °F (at 5:20 AM)
Average temperature yesterday: 70 °F

Past Weeks' High & Low Weather Summary

 TemperatureHumidityPressure
High97 °F (Jul 4, 3:20 PM)100% (Jun 27, 7:20 AM)30.27 "Hg (Jun 27, 7:20 AM)
Low50 °F (Jun 23, 7:20 AM)34% (Jun 30, 6:20 PM)29.65 "Hg (Jul 7, 8:20 PM)
Average69 °F65%30.07 "Hg
* Reported Jun 23 7:20 AM — Jul 8 7:20 AM, Nienburg (Weser), Weather by CustomWeather, © 2015

Note: Actual official high and low records may vary slightly from our data, if they occured in-between our weather recording intervals... More about our weather records

Advertising

Nienburg (Weser) weather history for previous 24 hours

 ConditionsComfort  
Time TempWeatherWind HumidityBarometerVisibility
7:20 AM
Wed, Jul 8
61 °FPartly sunny.15 mph77%29.71 "HgN/A
6:20 AM63 °FScattered clouds.15 mph73%29.68 "HgN/A
5:20 AM64 °FPassing clouds.13 mph68%29.71 "HgN/A
4:20 AM64 °FMild.12 mph73%29.68 "Hg4 mi
3:20 AM66 °FMild.9 mph68%29.68 "Hg3 mi
2:20 AM68 °FMild.14 mph69%29.68 "Hg3 mi
1:20 AM68 °FMild.12 mph69%29.65 "Hg3 mi
12:20 AM70 °FMild.7 mph64%29.65 "Hg3 mi
11:20 PM
Tue, Jul 7
72 °FMild.12 mph61%29.65 "Hg3 mi
10:20 PM72 °FMild.13 mph69%29.65 "Hg3 mi
9:20 PM72 °FMild.12 mph83%29.65 "Hg3 mi
8:20 PM72 °FMild.10 mph83%29.65 "Hg3 mi
7:20 PM72 °FMostly cloudy.10 mph78%29.68 "HgN/A
6:20 PM73 °FThunderstorms. Mostly cloudy.7 mph69%29.68 "HgN/A
5:20 PM82 °FMostly cloudy.6 mph45%29.71 "HgN/A
4:20 PM82 °FMore clouds than sun.5 mph45%29.74 "HgN/A
3:20 PM84 °FPartly sunny.7 mph37%29.77 "HgN/A
2:20 PM84 °FScattered clouds.12 mph37%29.80 "HgN/A
1:20 PM81 °FScattered clouds.9 mph45%29.83 "HgN/A
12:20 PM81 °FPassing clouds.9 mph39%29.86 "HgN/A
11:20 AM79 °FPassing clouds.8 mph45%29.86 "HgN/A
10:20 AM77 °FPassing clouds.6 mph51%29.89 "HgN/A
9:20 AM72 °FPassing clouds.7 mph61%29.92 "HgN/A
8:20 AM66 °FPassing clouds.6 mph73%29.95 "HgN/A
Weather by CustomWeather, © 2015

See weather overviewHow to use our weather pages